Home > Weather > May Pen > Past weeks

Flag for Jamaica Past Weather in May Pen, Jamaica — Yesterday and Last 2 Weeks

Now
88 °F

Passing clouds.


Feels Like: 96 °F
Forecast: N/A
Wind: 20 mph from Southeast

Location: Kingston / Norman Manley

Current Time: Jul 30, 2016 at 5:46:55 PM

Latest Report: Jul 30, 2016 at 5:00 PM


Visibility: N/A

Pressure: 29.89 "Hg

Humidity: 62%

Dew Point: 73 °F

Location of May PenLocation

Past Weather in May Pen — Graph

°F

May Pen Temperature Yesterday

Maximum temperature yesterday: 90 °F (at 10:00 AM)
Minimum temperature yesterday: 82 °F (at 5:00 AM)
Average temperature yesterday: 86 °F

High & Low Weather Summary for the Past Weeks

 TemperatureHumidityPressure
High93 °F (Jul 17, 1:00 PM)89% (Jul 15, 5:00 PM)30.01 "Hg (Jul 15, 5:00 PM)
Low79 °F (Jul 15, 5:00 PM)53% (Jul 28, 3:00 PM)29.86 "Hg (Jul 25, 4:00 PM)
Average86 °F70%29.95 "Hg
* Reported Jul 15 5:00 PM — Jul 30 5:00 PM, May Pen, Weather by CustomWeather, © 2016

Note: Actual official high and low records may vary slightly from our data, if they occured in-between our weather recording intervals... More about our weather records

Advertising

May Pen Weather History for the Previous 24 Hours

Scroll right to see more
 ConditionsComfort  
Time TempWeatherWind HumidityBarometerVisibility
5:00 PM
Sat, Jul 30
88 °FPassing clouds.20 mph62%29.89 "HgN/A
4:00 PM90 °FPassing clouds.17 mph59%29.89 "HgN/A
3:00 PM91 °FPassing clouds.20 mph56%29.92 "HgN/A
2:00 PM90 °FPassing clouds.18 mph59%29.92 "HgN/A
1:00 PM88 °FPassing clouds.18 mph66%29.92 "HgN/A
12:00 PM88 °FPassing clouds.21 mph66%29.95 "HgN/A
11:00 AM90 °FPassing clouds.20 mph63%29.95 "HgN/A
10:00 AM88 °FPassing clouds.16 mph66%29.95 "HgN/A
9:00 AM88 °FPassing clouds.13 mph62%29.95 "HgN/A
8:00 AM86 °FPassing clouds.5 mph66%29.95 "HgN/A
7:00 AM81 °FPassing clouds.5 mph84%29.92 "HgN/A
6:00 AM82 °FThundershowers. Passing clouds.3 mph74%29.92 "HgN/A
5:00 AM82 °FThundershowers. Passing clouds.3 mph74%29.89 "HgN/A
4:00 AM82 °FThundershowers. Passing clouds.9 mph70%29.89 "HgN/A
3:00 AM82 °FThundershowers. Passing clouds.2 mph74%29.89 "HgN/A
2:00 AM82 °FThundershowers. Passing clouds.6 mph74%29.92 "HgN/A
1:00 AM84 °FThundershowers. Passing clouds.6 mph74%29.95 "HgN/A
12:00 AM84 °FPassing clouds.3 mph70%29.95 "HgN/A
11:00 PM
Fri, Jul 29
84 °FPassing clouds.5 mph70%29.95 "HgN/A
10:00 PM86 °FPassing clouds.13 mph70%29.95 "HgN/A
9:00 PM84 °FPassing clouds.5 mphN/A29.95 "HgN/A
8:00 PM86 °FPassing clouds.15 mph66%29.95 "HgN/A
7:00 PM86 °FPassing clouds.14 mph75%29.92 "HgN/A
6:00 PM86 °FPassing clouds.17 mph75%29.89 "HgN/A
5:00 PM84 °FScattered showers. Scattered clouds.22 mph74%29.89 "HgN/A
Weather by CustomWeather, © 2016

See weather overviewHow to use our weather pages